INMARSAT 4-F2 (SOUTHPA*)

Last updated on Wed Nov 05 2025 00:03:27 GMT+0000 (Coordinated Universal Time)

1 28899U 05044A 25308.61989237 -.00000247 00000+0 00000+0 0 9994 2 28899 4.8017 43.6274 0003695 191.9437 175.2284 1.00271499 73272
UTC large
Height (km)
Speed (km/s)
/
Latitude / Longitude
Inclination (degrees)
Orbital Period (minutes)
Azimuth
Elevation
Range (km)
Doppler Factor

Next 0 passes for location: London (51.5072 / 0.1276)

Sorry there are no passes over London.